TimeCST,TemperatureF,Dew PointF,Humidity,Sea Level PressureIn,VisibilityMPH,Wind Direction,Wind SpeedMPH,Gust SpeedMPH,PrecipitationIn,Events,Conditions,WindDirDegrees,DateUTC
12:53 AM,51.1,39.0,63,30.08,10.0,North,11.5,-,N/A,,Clear,350,2013-02-16 06:53:00
1:53 AM,50.0,37.9,63,30.06,10.0,NNW,10.4,-,N/A,,Clear,340,2013-02-16 07:53:00
2:53 AM,48.0,37.9,68,30.07,10.0,NNW,9.2,-,N/A,,Clear,340,2013-02-16 08:53:00
3:53 AM,48.9,37.9,66,30.07,10.0,NNW,11.5,-,N/A,,Overcast,330,2013-02-16 09:53:00
4:53 AM,48.9,36.0,61,30.09,10.0,NNW,15.0,23.0,N/A,,Overcast,330,2013-02-16 10:53:00
5:53 AM,48.9,33.1,54,30.13,10.0,NNW,24.2,33.4,0.00,Rain,Light Rain,330,2013-02-16 11:53:00
6:53 AM,46.9,35.1,63,30.12,10.0,NNW,5.8,-,0.00,,Overcast,330,2013-02-16 12:53:00
7:53 AM,48.9,35.1,59,30.15,10.0,NW,9.2,-,N/A,,Partly Cloudy,310,2013-02-16 13:53:00
8:53 AM,52.0,33.1,49,30.16,10.0,NNW,18.4,21.9,N/A,,Clear,330,2013-02-16 14:53:00
9:53 AM,53.1,28.0,38,30.18,10.0,NW,13.8,24.2,N/A,,Partly Cloudy,320,2013-02-16 15:53:00
10:53 AM,54.0,25.0,33,30.18,10.0,WNW,19.6,27.6,N/A,,Clear,300,2013-02-16 16:53:00
11:53 AM,55.0,25.0,31,30.16,10.0,NW,21.9,31.1,N/A,,Clear,310,2013-02-16 17:53:00
12:53 PM,55.9,24.1,29,30.13,10.0,WNW,18.4,29.9,N/A,,Scattered Clouds,300,2013-02-16 18:53:00
1:53 PM,55.0,17.1,23,30.12,10.0,NNW,19.6,31.1,N/A,,Mostly Cloudy,340,2013-02-16 19:53:00
2:53 PM,54.0,16.0,22,30.12,10.0,NNW,25.3,31.1,N/A,,Scattered Clouds,330,2013-02-16 20:53:00
3:53 PM,53.1,15.1,22,30.13,10.0,NNW,16.1,31.1,N/A,,Clear,340,2013-02-16 21:53:00
4:53 PM,50.0,14.0,24,30.14,10.0,NW,15.0,25.3,N/A,,Clear,320,2013-02-16 22:53:00
5:53 PM,46.9,16.0,29,30.17,10.0,NW,11.5,-,N/A,,Clear,320,2013-02-16 23:53:00
6:53 PM,44.1,18.0,35,30.21,10.0,NW,8.1,-,N/A,,Clear,320,2013-02-17 00:53:00
7:53 PM,42.1,19.9,41,30.23,10.0,NNW,6.9,-,N/A,,Clear,330,2013-02-17 01:53:00
8:53 PM,42.1,19.0,40,30.27,10.0,NNW,9.2,-,N/A,,Clear,330,2013-02-17 02:53:00
9:53 PM,39.9,19.9,45,30.28,10.0,NNW,8.1,-,N/A,,Clear,340,2013-02-17 03:53:00
10:53 PM,39.9,19.0,43,30.28,10.0,North,6.9,-,N/A,,Clear,350,2013-02-17 04:53:00
11:53 PM,37.9,19.9,48,30.29,10.0,North,4.6,-,N/A,,Clear,350,2013-02-17 05:53:00